Terug naar catalogus

SL-8 DEB

ActiefLEO
NORAD 21208·DEBRIS·🇷🇺 Russia

Gelanceerd Feb 12, 1991 vanaf Plesetsk Cosmodrome

Loading…

Volgende Passages (komende 24 uur)

TLE

VersSource: Space-Track

Epoch: Sep 14, 2026, 07:17 UTC

1 21208U 91009BB  26257.30381497  .00000031  00000-0  38426-3 0  9999
2 21208  73.9611  26.1064 0148017 241.4801 139.2621 12.31159377592843

Volg SL-8 DEB in realtime met AllMySat

Download on the App Store